Regional Weather Roundup
Issued by NWS

Home | Current Version | Previous Version | Text Only | Print | Product List | Glossary On
Versions: 1 2 3 4 5 6 7 8 9 10 11 12 13 14 15 16 17 18 19 20 21 22 23 24 25 26 27 28 29 30 31 32 33 34 35 36 37 38 39 40 41 42 43 44 45 46 47 48 49 50
791
ASUS43 KMKX 281221
RWRWI

WISCONSIN REGIONAL WEATHER ROUNDUP
NATIONAL WEATHER SERVICE MILWAUKEE/SULLIVAN WI
700 AM CDT THU JUL 28 2016

NOTE: "FAIR" INDICATES FEW OR NO CLOUDS BELOW 12,000 FEET WITH NO
SIGNIFICANT WEATHER AND/OR OBSTRUCTIONS TO VISIBILITY.

WIZ001-002-006>008-014>016-023>028-281300-
NORTHWEST WISCONSIN

CITY           SKY/WX    TMP DP  RH WIND       PRES   REMARKS
SUPERIOR ARPT  SUNNY     61  57  84 NE6       30.06S
6HR MIN TEMP:  54; 6HR MAX TEMP:  61;

ASHLAND        SUNNY     63  58  83 NE8       30.06R
6HR MIN TEMP:  60; 6HR MAX TEMP:  63;

HAYWARD        CLOUDY    62  59  90 NE7       30.04R
6HR MIN TEMP:  60; 6HR MAX TEMP:  63;

SIREN          MOSUNNY   61  57  88 NE6       30.03S
CUMBERLAND     CLOUDY    63  61  94 N7        30.02R
RICE LAKE      CLOUDY    65  62  91 N8        30.02R
6HR MIN TEMP:  64; 6HR MAX TEMP:  65; 6HR PCP:  0.01;

CHETEK         CLOUDY    65  63  91 NE7       30.00R
6HR MIN TEMP:  65; 6HR MAX TEMP:  66;

LADYSMITH      CLOUDY    65  63  94 NE7       30.03R
6HR MIN TEMP:  64; 6HR MAX TEMP:  65; 6HR PCP:  0.03;

EAU CLAIRE     CLOUDY    66  65  96 NE7       29.96S
6HR MIN TEMP:  65; 6HR MAX TEMP:  66; 6HR PCP:  0.01;

MENOMONIE      CLOUDY    66  65  99 N8        29.98S
6HR MIN TEMP:  65; 6HR MAX TEMP:  66;

NEW RICHMOND   CLOUDY    64  63  97 N8        30.01R
6HR MIN TEMP:  64; 6HR MAX TEMP:  65;

OSCEOLA        CLOUDY    64  64 100 N8        30.04R
6HR MIN TEMP:  64; 6HR MAX TEMP:  65;

$$

WIZ003>005-009-010-017-018-281300-
NORTH CENTRAL WISCONSIN

CITY           SKY/WX    TMP DP  RH WIND       PRES   REMARKS
MANITOWISH WTR CLOUDY    60  59  97 NE8       30.06R
6HR MIN TEMP:  59; 6HR MAX TEMP:  63;

ARBOR VITAE    CLOUDY    61  58  91 NE3       30.06R
6HR MIN TEMP:  59; 6HR MAX TEMP:  64;

WOODRUFF       CLOUDY    61  58  91 NE3       30.06R
6HR MIN TEMP:  59; 6HR MAX TEMP:  64;

RHINELANDER    CLOUDY    60  57  89 NE6       30.05R
6HR MIN TEMP:  59; 6HR MAX TEMP:  65; 6HR PCP:  0.02;

EAGLE RIVER    CLOUDY    59  58  97 NE5       30.05S
6HR MIN TEMP:  58; 6HR MAX TEMP:  61;

LAND O LAKES   CLOUDY    60  57  91 NE5       30.06S
6HR MIN TEMP:  59; 6HR MAX TEMP:  61; 6HR PCP:  0.05;

PHILLIPS       CLOUDY    62  61  97 NE9       30.03S
6HR MIN TEMP:  61; 6HR MAX TEMP:  64; 6HR PCP:  0.02;

TOMAHAWK       CLOUDY    59  58  94 NE6       30.04S
6HR MIN TEMP:  59; 6HR MAX TEMP:  64;

MEDFORD        DRIZZLE   61  61 100 NE8       30.01R
6HR MIN TEMP:  61; 6HR MAX TEMP:  63; 6HR PCP:  0.50;

MERRILL        DRIZZLE   59  59 100 NE6       30.04R
6HR MIN TEMP:  59; 6HR MAX TEMP:  64; 6HR PCP:  0.35;

$$

WIZ029-030-035-036-043>047-281300-
CENTRAL WISCONSIN

CITY           SKY/WX    TMP DP  RH WIND       PRES   REMARKS
WAUSAU         LGT RAIN  60  59  96 E3        30.00R
6HR MIN TEMP:  60; 6HR MAX TEMP:  64; 6HR PCP:  0.43;

MOSINEE        HVY RAIN  59  59 100 E12       30.01R
MARSHFIELD     LGT RAIN  63  60  90 NE14G21   29.97S FOG
6HR MIN TEMP:  63; 6HR MAX TEMP:  66; 6HR PCP:  0.26;

STEVENS POINT  RAIN      60  60  99 NE14      29.99R
6HR MIN TEMP:  60; 6HR MAX TEMP:  64; 6HR PCP:  0.15;

WAUPACA        CLOUDY    66  66  98 NE5       29.98S
6HR MIN TEMP:  66; 6HR MAX TEMP:  68; 6HR PCP:  0.01;

WAUTOMA        CLOUDY    67  66  97 NE7       29.97R
6HR MIN TEMP:  65; 6HR MAX TEMP:  68;

WISC RAPIDS    CLOUDY    66  63  90 E12       29.98R
6HR MIN TEMP:  65; 6HR MAX TEMP:  67; 6HR PCP:  0.18;

CAMP DOUGLAS   LGT RAIN  66  66 100 E8        29.93S
                                      6HR PCP:  0.15;

$$

WIZ011>013-019>022-031-037>040-048>050-281300-
NORTHEAST WISCONSIN

CITY           SKY/WX    TMP DP  RH WIND       PRES   REMARKS
ANTIGO         RAIN      58  58 100 NE6       30.04R
6HR MIN TEMP:  57; 6HR MAX TEMP:  63; 6HR PCP:  0.59;

SHAWANO        CLOUDY    63  60  90 NE10      30.02R
6HR MIN TEMP:  63; 6HR MAX TEMP:  68; 6HR PCP:  0.19;

OCONTO         CLOUDY   N/A N/A N/A NE7       30.00S
STURGEON BAY   CLOUDY    62  60  93 NE7       30.01S
6HR MIN TEMP:  61; 6HR MAX TEMP:  67; 6HR PCP:  0.27;

GREEN BAY      CLOUDY    64  63  96 NE14      29.99R
6HR MIN TEMP:  63; 6HR MAX TEMP:  67; 6HR PCP:  0.08;

MANITOWOC      LGT RAIN  65  60  84 NE10      29.98S
6HR MIN TEMP:  65; 6HR MAX TEMP:  70; 6HR PCP: TRACE;

APPLETON       PTSUNNY   64  63  94 NE10      29.96
CLINTONVILLE   CLOUDY    61  59  94 NE8       30.00R
OSHKOSH        CLOUDY    67  61  81 NE12      29.96R
6HR MIN TEMP:  67; 6HR MAX TEMP:  73; 6HR PCP:  0.05;

$$

WIZ032>034-041-042-053>061-281300-
SOUTHWEST WISCONSIN

CITY           SKY/WX    TMP DP  RH WIND       PRES   REMARKS
LA CROSSE      CLOUDY    69  66  90 N8        29.92R
6HR MIN TEMP:  68; 6HR MAX TEMP:  72; 6HR PCP: TRACE;

SPARTA         CLOUDY    67  67  99 CALM      29.93R
6HR MIN TEMP:  64; 6HR MAX TEMP:  67; 6HR PCP:  0.06;

VIROQUA        CLOUDY    68  68 100 CALM      29.93S VSB 1/4
6HR MIN TEMP:  66; 6HR MAX TEMP:  71;

BOSCOBEL       FOG       69  68  96 CALM      29.91S VSB 1/4
6HR MIN TEMP:  67; 6HR MAX TEMP:  69;

PRAIRIE DU CHI CLOUDY    68  67  96 CALM      29.90S FOG
6HR MIN TEMP:  67; 6HR MAX TEMP:  68;

PLATTEVILLE    MOSUNNY   69  68  96 CALM      29.91S
6HR MIN TEMP:  65; 6HR MAX TEMP:  71;

$$

WIZ056-057-062-063-064-067-068-281300-
SOUTH CENTRAL WISCONSIN

CITY           SKY/WX    TMP DP  RH WIND       PRES   REMARKS
REEDSBURG      PTSUNNY   68  68 100 E6        29.92S
BARABOO/DELLS  MOSUNNY   66  64  93 E8        29.93R
6HR MIN TEMP:  66; 6HR MAX TEMP:  70;

LONE ROCK      CLOUDY    69  67  93 CALM      29.92S FOG
6HR MIN TEMP:  65; 6HR MAX TEMP:  69;

MINERAL POINT  MOSUNNY   70  68  94 NE3       29.92S
MADISON        PTSUNNY   70  66  87 E7        29.92S
6HR MIN TEMP:  67; 6HR MAX TEMP:  74;

MIDDLETON      CLOUDY    70  69  99 E5        29.93S
6HR MIN TEMP:  68; 6HR MAX TEMP:  71;

WATERTOWN      PTSUNNY   67  67 100 E7        29.93S
6HR MIN TEMP:  66; 6HR MAX TEMP:  70;

MONROE         SUNNY     68  68 100 NE6       29.91S FOG
JANESVILLE     FOG       70  70 100 E8        29.91R VSB 1
$$

WIZ051-052-058>065-066-070>072-281300-
SOUTHEAST WISCONSIN

CITY           SKY/WX    TMP DP  RH WIND       PRES   REMARKS
MILWAUKEE      PTSUNNY   70  67  90 NE8       29.93R
6HR MIN TEMP:  68; 6HR MAX TEMP:  70; 6HR PCP:  0.03;

WAUKESHA       PTSUNNY   66  64  94 E9        29.95S
MILWAUKEE/TIMM PTSUNNY   68  64  88 N6        29.95R
RACINE         CLOUDY    70  68  93 N7        29.94S
6HR MIN TEMP:  66; 6HR MAX TEMP:  72; 6HR PCP:  0.05;

BURLINGTON     SUNNY     68  65  91 E3        29.93R
6HR MIN TEMP:  66; 6HR MAX TEMP:  70;

KENOSHA        SUNNY     70  67  90 N5        29.93R
6HR MIN TEMP:  67; 6HR MAX TEMP:  75;

FOND DU LAC    CLOUDY    67  62  84 NE9       29.96R
6HR MIN TEMP:  67; 6HR MAX TEMP:  72; 6HR PCP:  0.04;

SHEBOYGAN      CLOUDY    66  61  84 NE14      29.96R
6HR MIN TEMP:  65; 6HR MAX TEMP:  68;

WEST BEND      CLOUDY    64  64 100 NE6       29.95S
JUNEAU         CLOUDY    66  64  95 E12       29.95S
6HR MIN TEMP:  65; 6HR MAX TEMP:  68;

$$

LSZ147-162-281300-
LAKE SUPERIOR

STATION/POSITION TIME  TEMP    WIND        PRES    WAVE
                       AIR SEA DIR/SP/G            HT/PER
                 (UTC) (F)     (DEG/KT/KT) (MB)    (FT/S)
W MID LAKE BUOY  1150   62 59   30/ 12/ 14 1017.7R   1
DEVILS ISLAND    1200   62      30/ 10/ 12 1018.2R
PORT WING        1040   60      CALM  /  3 1017.9R
SAXON HARBOR     1140   65      70/  8/ 10 1017.3S
$$

LMZ867-665-643>646-281300-
LAKE MICHIGAN

STATION/POSITION TIME  TEMP    WIND        PRES    WAVE
                       AIR SEA DIR/SP/G            HT/PER
                 (UTC) (F)     (DEG/KT/KT) (MB)    (FT/S)
CHAMBERS ISLAND  1100   65     360/ 14/ 18 1015.9R
N MID LC1F1C2F2C3F3C4F4C5F5C6F6C7F7C8M1C9M2Ca!



USA.gov is the U.S. government's official web portal to all federal, state and local government web resources and services.